{"data":{"norad_id":68104,"intl_designator":"2026-044D","name":"STARLINK-37041","alt_names":[],"object_type":"PAYLOAD","status":"ACTIVE","operator":null,"country":"US","launch_date":"2026-03-08","launch_site_code":"AFWTR","launch_vehicle":null,"mission":null,"orbit_class":"UNKNOWN","rcs_meters":null,"size_class":null,"mass_kg":null,"dimensions":null,"purposes":["comms"],"wikipedia_slug":null,"has_3d_model":false,"image_url":null,"decayed_at":null,"tle_current":{"epoch":"2026-05-24T20:41:26.956320Z","epoch_age_seconds":83094,"freshness":"FRESH","line1":"1 68104U 26044D   26144.86211755  .00029429  00000+0  90996-3 0  9998","line2":"2 68104  97.2857 105.4475 0002126  94.7423 265.4063 15.33457015 13256","mean_motion":15.33457015,"eccentricity":0.0002126,"inclination_deg":97.2857,"raan_deg":105.4475,"arg_perigee_deg":94.7423,"mean_anomaly_deg":265.4063,"bstar":0.00090996,"rev_number":1325,"period_min":93.905468879413,"perigee_km":464.05246771974,"apogee_km":466.9623853299,"semimajor_km":6843.6444265248,"source":"CELESTRAK","updated_at":"2026-05-25T13:38:21.841172Z"}}}